Concordia, KS

7:26 AM CST on February 22, 2017 (GMT -0600)
Blosser Municipal

Weather History for KCNK - November, 2014

Change the Weather History Date:

Saturday, November 1, 2014

  Actual Average Record
Temperature  
Mean Temperature 42 °F 49 °F  
Max Temperature 56 °F 60 °F 83 °F (1990)
Min Temperature 27 °F 38 °F 16 °F (1991)
Degree Days  
Heating Degree Days 23 16  
Month to date heating degree days 23 16  
Since 1 July heating degree days 354 407  
Cooling Degree Days 0 0  
Month to date cooling degree days 0 0  
Year to date cooling degree days 1368 1348  
Moisture  
Dew Point 18 °F    
Average Humidity 46    
Maximum Humidity 75    
Minimum Humidity 16    
Precipitation  
Precipitation 0.00 in 0.05 in 2.60 in (1998)
Month to date precipitation 0.00 0.05  
Year to date precipitation 26.35 25.98  
Snow  
Snow 0.00 in 0.00 in 3.00 in (1991)
Month to date snowfall 0.0 0.0  
Year to date snowfall 16.9 13.9  
Since 1 July snowfall 0.0 0.2  
Snow Depth 0.00 in    
Sea Level Pressure  
Sea Level Pressure 30.29 in    
Wind  
Wind Speed 16 mph (SSE)    
Max Wind Speed 29 mph    
Max Gust Speed 35 mph    
Visibility 10 miles    
Events      
T = Trace of Precipitation, MM = Missing Value Source: NWS Daily Summary

Daily Weather History Graph

Daily Weather History Graph

Search for Another Location

Airport or City:

Trip Planner

Search our weather history database for the weather conditions in past years. The results will help you decide how hot, cold, wet, or windy it might be!

Date:

Astronomy

Nov. 01, 2014 Rise Set
Actual Time 7:58 AM CDT 6:28 PM CDT
Civil Twilight 7:31 AM CDT 6:56 PM CDT
Nautical Twilight 6:59 AM CDT 7:28 PM CDT
Astronomical Twilight 6:27 AM CDT 7:59 PM CDT
Moon 3:22 PM CDT (11/1) 1:57 AM CDT (11/1)
Length of Visible Light 11h 25m
Length of Day
10h 29m
Waxing Gibbous, 68% of the Moon is Illuminated
Nov 1
Waxing Gibbous
Nov 6
Full
Nov 14
Last Quarter
Nov 22
New
Nov 29
First Quarter

Hourly Weather History & Observations

Time (CDT) Temp. Windchill Dew Point Humidity Pressure Visibility Wind Dir Wind Speed Gust Speed Precip Events Conditions
12:55 AM 28.0 °F 22.8 °F 18.0 °F 66% 30.46 in 10.0 mi SE 4.6 mph - N/A   Clear
1:55 AM 28.9 °F 21.9 °F 19.9 °F 69% 30.44 in 10.0 mi SE 6.9 mph - N/A   Clear
2:55 AM 28.0 °F 20.8 °F 21.0 °F 75% 30.43 in 10.0 mi SE 6.9 mph - N/A   Clear
3:55 AM 30.0 °F 20.0 °F 21.0 °F 69% 30.40 in 10.0 mi SE 12.7 mph - N/A   Clear
4:55 AM 30.0 °F 20.5 °F 19.9 °F 66% 30.41 in 10.0 mi SE 11.5 mph - N/A   Clear
5:55 AM 30.0 °F 21.1 °F 19.0 °F 64% 30.40 in 10.0 mi SE 10.4 mph - N/A   Clear
6:55 AM 30.2 °F 18.5 °F 17.6 °F 60% 30.35 in 10.0 mi SE 17.3 mph - N/A   Clear
7:55 AM 30.0 °F 19.5 °F 19.0 °F 64% 30.40 in 10.0 mi SSE 13.8 mph - N/A   Clear
8:55 AM 32.0 °F 20.8 °F 19.9 °F 61% 30.39 in 10.0 mi SSE 17.3 mph 25.3 mph N/A   Clear
9:55 AM 36.0 °F 24.7 °F 19.9 °F 52% 30.39 in 10.0 mi SSE 21.9 mph 27.6 mph N/A   Clear
10:55 AM 41.0 °F 32.8 °F 19.0 °F 41% 30.36 in 10.0 mi SSE 16.1 mph 26.5 mph N/A   Clear
11:55 AM 44.1 °F 35.4 °F 19.0 °F 37% 30.33 in 10.0 mi SSE 21.9 mph 27.6 mph N/A   Clear
12:55 PM 48.9 °F - 19.0 °F 31% 30.29 in 10.0 mi SSE 17.3 mph 24.2 mph N/A   Clear
1:55 PM 52.0 °F - 16.0 °F 24% 30.24 in 10.0 mi SSE 21.9 mph 29.9 mph N/A   Clear
2:55 PM 54.0 °F - 14.0 °F 21% 30.19 in 10.0 mi South 19.6 mph 33.4 mph N/A   Clear
3:55 PM 55.0 °F - 10.9 °F 17% 30.16 in 10.0 mi South 24.2 mph 34.5 mph N/A   Clear
4:55 PM 54.0 °F - 14.0 °F 21% 30.15 in 10.0 mi SSE 24.2 mph 32.2 mph N/A   Clear
5:55 PM 51.1 °F - 16.0 °F 25% 30.14 in 10.0 mi SSE 16.1 mph 25.3 mph N/A   Clear
6:55 PM 48.0 °F - 16.0 °F 28% 30.15 in 10.0 mi SSE 11.5 mph - N/A   Clear
7:55 PM 46.0 °F 41.0 °F 18.0 °F 33% 30.15 in 10.0 mi SSE 10.4 mph - N/A   Clear
8:55 PM 44.1 °F 38.1 °F 19.9 °F 38% 30.14 in 10.0 mi SSE 11.5 mph - N/A   Clear
9:55 PM 44.1 °F 37.4 °F 19.9 °F 38% 30.13 in 10.0 mi SSE 13.8 mph - N/A   Clear
10:55 PM 46.0 °F 39.6 °F 21.0 °F 37% 30.11 in 10.0 mi SSE 15.0 mph - N/A   Clear
11:55 PM 46.9 °F - 21.0 °F 36% 30.08 in 10.0 mi South 18.4 mph 27.6 mph N/A   Clear